Temp
80 79 78 79 78 78 77 76 75 75 74 73 73 74 75 75 75 74 74 77 74 75 74 73 74 76 76 73 75 79 78 76 70 81 74 79 82 75 79 88 91 90 91
79 78 78 78 77 77 76 76 76 74 74 73 73 73 74 74 73 72 72 74 73 72 74 74 75 77 74 77 76 72 73 77 73 73 83 78 79 79 76 76 80 86 86
80 80 79 78 77 75 75 75 75 73 73 73 71 70 71 68 68 68 68 70 74 74 70 70 71 74 74 77 74 71 72 72 73 71 77 86 86 83 81 81 81 83 79
79 76 74 74 74 75 74 74 73 72 72 71 71 71 72 72 71 71 71 71 72 74 74 74 71 70 70 73 74 74 76 72 73 71 73 78 81 85 84 82 80 80 75
76 75 72 72 73 72 71 71 71 71 71 71 70 71 72 73 70 66 69 71 70 71 72 73 74 71 66 64 64 64 66 71 75 71 70 71 75 77 79 85 84 83 76
74 72 72 71 71 70 70 70 70 70 70 69 69 69 69 73 61 61 65 71 71 70 69 69 69 67 65 64 64 64 65 64 69 74 74 71 73 73 78 82 84 84 81
73 72 71 70 69 69 70 69 68 68 69 68 69 69 68 67 59 60 63 73 71 70 63 62 64 66 62 64 64 66 69 68 68 71 71 72 72 74 70 69 75 79 82
71 71 70 70 69 69 69 68 68 69 68 68 68 69 69 67 58 59 61 72 71 71 69 64 61 62 61 61 64 65 68 72 74 76 74 73 74 75 73 67 70 74 77
71 70 70 70 69 69 68 68 69 69 69 69 70 68 68 67 58 58 62 72 71 71 71 68 64 64 58 57 63 62 63 68 70 66 66 65 66 66 67 70 74 69 70
70 70 70 70 69 69 68 68 71 72 71 74 71 71 62 69 56 57 60 72 69 72 72 70 60 61 57 56 62 60 58 62 64 66 68 71 71 73 66 73 68 66 69
72 71 70 70 70 70 70 71 71 71 70 70 70 71 72 67 66 56 56 69 68 71 71 71 70 58 56 55 57 62 58 62 65 68 68 64 64 68 73 69 70 69 69
71 70 70 70 75 73 71 71 70 70 71 70 70 73 76 73 58 57 56 57 60 69 69 71 68 56 55 55 62 55 57 62 69 66 65 65 64 63 64 68 67 69 71
71 70 70 71 73 73 71 71 73 73 74 73 74 74 74 76 75 59 59 58 61 67 70 65 57 56 55 62 57 58 61 69 67 64 63 64 64 66 67 68 66 67 68
70 70 71 71 71 73 75 77 76 76 74 74 73 73 74 74 74 74 74 73 65 68 66 71 67 61 59 64 69 69 71 70 67 66 66 67 67 66 65 64 63 60 61
71 72 73 75 73 74 75 77 75 75 71 72 74 74 72 72 71 58 58 69 69 63 56 72 72 71 70 70 70 71 71 70 69 68 68 66 66 66 65 64 58 61 55
71 73 75 77 78 79 78 77 56 55 53 52 49 56 73 61 54 49 46 45 45 47 65 71 70 69 68 68 68 68 70 68 68 68 68 67 66 64 62 63 60 55 57
73 73 76 71 78 77 76 75 73 70 53 49 48 47 46 50 47 45 44 44 45 48 68 69 69 69 69 69 68 68 67 68 66 68 67 67 66 66 64 62 59 58 54
73 58 76 78 78 77 76 75 76 75 73 75 55 57 48 46 45 45 44 47 68 61 66 67 65 68 67 66 67 68 68 68 68 67 67 67 66 65 64 64 63 55 51
74 77 77 78 78 73 75 76 77 76 75 75 77 61 53 47 46 46 45 66 71 71 72 71 71 67 66 65 64 64 66 68 67 67 67 66 66 65 64 64 64 53 50
76 67 65 76 77 77 78 77 77 76 75 74 75 76 75 71 73 73 65 68 73 72 72 68 69 71 68 67 66 63 62 66 68 67 66 66 66 65 64 63 64 63 62
79 79 71 76 77 78 77 77 77 77 76 76 76 73 51 71 72 74 74 74 71 71 68 70 71 70 66 65 67 65 61 66 67 67 66 65 64 63 64 64 64 64 64
79 79 79 78 78 77 77 78 77 77 75 75 75 74 55 73 74 74 73 68 66 68 67 68 69 68 68 67 64 61 63 65 65 65 63 62 62 63 63 63 63 63 64
79 79 79 79 79 72 76 78 77 75 74 74 75 74 74 73 73 73 67 68 71 71 69 70 68 68 68 66 67 66 65 64 62 60 58 60 60 61 62 61 62 62 63
79 79 80 80 79 78 77 76 76 64 71 73 72 72 72 71 71 70 70 70 70 70 70 69 68 67 65 65 65 66 65 56 56 57 56 55 57 58 61 60 61 62 62
81 80 80 79 78 77 78 76 75 73 72 72 71 70 70 70 69 69 68 68 67 67 66 66 66 64 63 62 63 61 47 35 45 38 50 53 54 55 58 60 61 61 61
80 79 79 79 79 78 75 74 72 71 71 71 69 68 68 67 67 66 66 65 64 65 65 66 65 63 63 64 60 45 34 33 41 32 41 49 53 57 59 59 59 60 60
MSLP
1014.41 1014.83 1015.12 1015.18 1015.31 1015.46 1015.82 1016.08 1016.22 1016.29 1016.38 1016.14 1015.85 1015.51 1015.27 1014.99 1014.95 1014.57 1014.23 1013.64 1013.41 1013.00 1012.75 1012.45 1012.15 1011.64 1011.39 1011.36 1011.02 1010.44 1010.19 1010.29 1010.00 1008.78 1008.96 1008.65 1008.80 1009.17 1008.82 1008.27 1008.00 1008.02 1007.91
1014.63 1014.80 1015.26 1015.41 1015.56 1015.82 1016.11 1016.19 1016.22 1016.45 1016.42 1016.27 1016.07 1015.67 1015.53 1015.34 1015.35 1015.12 1014.65 1014.21 1013.84 1013.34 1012.95 1012.57 1012.11 1011.61 1011.52 1010.95 1010.73 1010.72 1010.59 1010.14 1009.88 1009.23 1008.16 1008.54 1008.63 1008.53 1008.54 1008.36 1008.38 1007.98 1007.70
1014.57 1014.94 1015.32 1015.46 1015.74 1016.18 1016.44 1016.51 1016.51 1016.57 1016.62 1016.42 1016.39 1016.32 1016.01 1016.10 1016.05 1015.57 1015.25 1014.70 1013.90 1013.35 1013.51 1013.21 1012.86 1011.97 1011.42 1010.96 1010.89 1010.71 1010.52 1010.21 1009.85 1009.48 1008.59 1007.78 1007.36 1007.79 1007.88 1007.85 1007.94 1007.97 1007.85
1015.17 1015.53 1015.76 1016.07 1016.46 1016.58 1016.83 1016.82 1016.87 1017.00 1016.96 1016.88 1016.85 1016.54 1016.12 1016.05 1016.03 1015.57 1015.09 1014.61 1014.05 1013.63 1013.31 1012.94 1012.80 1012.59 1012.01 1011.45 1011.10 1010.74 1010.21 1009.87 1009.62 1009.23 1008.65 1007.94 1007.58 1006.96 1007.17 1007.19 1007.29 1007.50 1007.22
1015.52 1015.83 1016.18 1016.58 1016.88 1017.23 1017.38 1017.34 1017.36 1017.46 1017.44 1017.30 1017.13 1016.89 1016.48 1016.15 1016.58 1016.25 1015.43 1014.54 1014.31 1013.97 1013.58 1013.21 1012.73 1012.92 1012.87 1012.79 1012.57 1012.01 1011.26 1010.29 1009.09 1008.78 1008.42 1008.00 1007.42 1007.03 1006.47 1006.10 1005.89 1006.07 1006.47
1015.86 1016.16 1016.55 1016.85 1017.17 1017.32 1017.48 1017.67 1017.84 1017.79 1017.77 1017.69 1017.57 1017.34 1017.14 1016.74 1017.36 1016.82 1015.92 1014.82 1014.53 1014.23 1013.84 1013.83 1013.61 1013.14 1013.30 1013.14 1012.78 1012.31 1011.77 1010.96 1009.84 1008.78 1008.14 1007.85 1007.46 1007.21 1006.87 1006.26 1005.49 1004.99 1004.59
1016.02 1016.43 1016.80 1017.20 1017.54 1017.74 1017.88 1018.01 1018.13 1018.15 1018.16 1018.04 1017.83 1017.54 1017.44 1017.48 1017.33 1016.84 1016.09 1015.10 1014.70 1014.45 1014.87 1014.77 1014.32 1014.10 1013.93 1013.39 1012.66 1011.86 1010.80 1010.29 1009.86 1009.31 1008.41 1007.78 1007.53 1007.28 1007.21 1006.78 1006.20 1005.47 1004.75
1016.44 1016.84 1017.26 1017.61 1017.86 1018.02 1018.08 1018.11 1018.20 1018.26 1018.13 1017.92 1017.85 1017.62 1017.29 1017.53 1017.58 1016.97 1016.15 1015.21 1014.84 1014.60 1014.51 1014.79 1014.83 1014.48 1014.32 1013.72 1012.59 1011.75 1011.08 1010.09 1009.20 1008.80 1008.37 1008.05 1007.77 1007.65 1007.41 1006.91 1006.06 1005.49 1005.34
1016.50 1017.04 1017.35 1017.60 1017.88 1018.05 1018.06 1018.17 1018.23 1018.07 1017.96 1017.78 1017.67 1017.40 1017.15 1017.20 1017.49 1017.20 1016.44 1015.22 1014.96 1014.51 1014.47 1014.66 1014.89 1014.60 1014.64 1013.88 1012.56 1011.98 1011.25 1010.27 1009.62 1009.27 1008.74 1008.29 1007.79 1007.44 1007.25 1006.97 1005.95 1005.93 1005.19
1016.60 1017.06 1017.47 1017.76 1017.95 1017.92 1018.04 1018.09 1018.12 1017.84 1017.61 1017.14 1017.11 1016.96 1017.12 1017.13 1017.74 1017.67 1017.07 1015.85 1015.11 1014.39 1014.15 1014.29 1014.77 1014.99 1014.68 1014.02 1012.90 1012.40 1011.72 1010.97 1010.10 1009.36 1008.79 1007.94 1007.23 1006.77 1006.33 1006.25 1006.01 1005.48 1004.91
1016.67 1017.10 1017.48 1017.81 1017.86 1017.88 1017.86 1017.89 1017.83 1017.64 1017.52 1017.06 1016.68 1016.50 1016.65 1017.27 1017.40 1017.62 1017.32 1016.35 1015.91 1014.75 1014.27 1014.23 1014.41 1014.85 1014.45 1014.06 1013.49 1013.00 1012.55 1011.50 1010.30 1009.31 1008.78 1008.65 1008.27 1007.60 1006.80 1006.52 1006.04 1005.71 1004.91
1016.74 1017.07 1017.36 1017.53 1017.25 1017.32 1017.61 1017.56 1017.76 1017.56 1016.82 1016.59 1016.40 1015.82 1015.75 1016.59 1017.14 1017.29 1017.25 1017.00 1016.56 1015.22 1014.68 1014.49 1014.58 1014.61 1014.09 1013.81 1013.09 1012.97 1012.18 1011.06 1010.22 1009.69 1009.21 1008.73 1008.37 1007.97 1007.65 1007.02 1006.54 1005.63 1004.90
1016.69 1016.89 1017.12 1017.26 1017.39 1017.47 1017.46 1017.37 1016.82 1016.76 1016.35 1016.16 1015.83 1015.53 1015.50 1015.62 1015.79 1016.35 1016.46 1016.35 1016.13 1015.52 1015.17 1014.86 1014.45 1013.99 1013.50 1012.82 1012.68 1012.34 1011.46 1010.94 1010.40 1009.95 1009.60 1009.00 1008.75 1008.40 1007.62 1006.81 1006.51 1005.70 1004.83
1016.45 1016.54 1016.67 1016.81 1016.91 1017.09 1016.89 1016.72 1016.54 1016.45 1016.33 1016.10 1015.88 1015.63 1015.49 1015.30 1015.43 1015.83 1015.84 1015.65 1015.54 1015.12 1014.98 1013.90 1013.54 1013.32 1012.82 1012.36 1011.66 1011.28 1010.95 1010.83 1010.54 1010.00 1009.61 1009.24 1009.01 1008.45 1007.76 1007.64 1006.71 1006.19 1005.17
1016.14 1016.18 1016.31 1016.29 1016.55 1016.60 1016.67 1016.52 1016.52 1016.70 1016.88 1016.74 1016.16 1015.87 1015.63 1015.48 1015.82 1016.55 1016.66 1016.19 1015.87 1015.58 1015.33 1013.43 1012.94 1012.57 1012.09 1011.72 1011.41 1011.10 1010.73 1010.42 1010.02 1009.90 1009.38 1009.05 1008.76 1008.23 1007.86 1007.84 1007.66 1006.53 1005.95
1015.94 1015.88 1015.78 1015.87 1016.02 1015.99 1015.96 1015.90 1016.55 1016.78 1017.00 1017.00 1016.90 1016.80 1016.01 1016.06 1016.22 1016.38 1016.43 1016.33 1016.01 1015.63 1014.71 1013.18 1012.79 1012.45 1012.17 1011.93 1011.57 1011.22 1010.85 1010.54 1010.22 1009.78 1009.17 1008.88 1008.56 1008.32 1008.15 1007.62 1007.45 1007.25 1006.30
1015.55 1015.93 1015.77 1016.05 1015.67 1015.65 1015.71 1015.78 1015.80 1015.97 1016.09 1016.32 1016.33 1016.37 1016.41 1016.12 1016.11 1015.95 1015.83 1015.65 1015.29 1015.23 1014.12 1013.08 1012.57 1012.28 1012.09 1011.95 1011.75 1011.42 1011.03 1010.75 1010.49 1009.78 1009.23 1008.84 1008.47 1008.08 1007.78 1007.53 1007.53 1007.19 1006.65
1015.93 1016.47 1016.02 1015.56 1015.38 1015.40 1015.43 1015.47 1015.44 1015.21 1015.22 1014.97 1015.35 1015.24 1015.33 1015.52 1015.51 1015.38 1015.46 1015.40 1014.38 1014.22 1013.85 1012.79 1012.48 1012.19 1012.09 1012.01 1011.80 1011.36 1010.87 1010.43 1010.09 1009.77 1009.23 1008.78 1008.37 1007.97 1007.43 1006.98 1006.76 1007.27 1007.16
1015.80 1015.60 1015.44 1015.17 1015.10 1015.57 1015.48 1015.09 1014.68 1014.48 1014.34 1014.14 1013.86 1014.56 1014.64 1014.74 1014.72 1014.63 1014.77 1014.26 1013.24 1012.85 1012.44 1012.03 1011.83 1011.91 1011.95 1012.02 1011.94 1011.63 1011.11 1010.16 1010.01 1009.41 1008.97 1008.62 1008.24 1007.82 1007.27 1006.87 1006.40 1006.44 1006.96
1015.40 1015.78 1015.95 1015.16 1014.91 1014.94 1014.53 1014.28 1014.03 1013.83 1013.65 1013.78 1013.50 1013.28 1013.81 1013.62 1013.29 1012.94 1012.79 1012.51 1012.06 1012.12 1011.78 1011.69 1011.53 1011.40 1011.97 1011.92 1011.73 1011.59 1011.40 1010.20 1009.31 1008.97 1008.75 1008.51 1008.12 1007.75 1007.19 1006.69 1006.23 1005.68 1005.49
1014.56 1014.64 1015.16 1015.16 1014.73 1014.43 1014.28 1014.02 1013.66 1013.51 1013.20 1013.02 1012.75 1012.89 1014.01 1013.62 1012.73 1012.07 1011.58 1011.21 1011.39 1011.35 1011.67 1011.37 1011.19 1011.24 1011.76 1011.84 1011.29 1011.32 1011.18 1010.06 1009.42 1008.96 1008.73 1008.51 1008.15 1007.64 1007.11 1006.55 1005.99 1005.47 1005.00
1014.27 1014.06 1014.17 1014.26 1014.21 1014.07 1013.79 1013.66 1013.54 1013.05 1013.11 1012.91 1012.73 1012.53 1013.05 1012.51 1012.03 1011.71 1011.30 1011.79 1012.03 1012.02 1011.98 1011.65 1011.49 1011.58 1011.66 1011.29 1011.53 1011.45 1010.47 1009.97 1009.53 1009.38 1009.34 1009.06 1008.31 1007.63 1007.05 1006.41 1005.78 1005.20 1004.62
1014.08 1013.79 1013.70 1013.59 1013.42 1013.43 1013.42 1013.10 1013.00 1013.09 1013.01 1012.89 1012.73 1012.54 1012.35 1012.19 1011.97 1011.63 1012.40 1012.34 1012.14 1011.89 1011.70 1011.75 1011.71 1011.50 1011.43 1011.63 1011.17 1010.84 1010.50 1010.19 1010.35 1010.66 1010.25 1009.24 1008.43 1007.67 1007.05 1006.40 1005.59 1004.91 1004.28
1013.56 1013.31 1013.06 1012.85 1012.81 1013.02 1013.01 1012.94 1012.98 1013.15 1013.24 1012.89 1012.87 1012.72 1012.54 1012.54 1012.43 1012.50 1012.56 1012.62 1012.52 1012.29 1012.01 1012.02 1011.91 1011.82 1011.88 1011.69 1011.43 1010.99 1010.84 1011.96 1011.86 1011.16 1010.61 1009.90 1008.78 1007.63 1006.83 1006.20 1005.51 1004.76 1004.22
1012.69 1012.54 1012.45 1012.41 1012.49 1012.69 1012.84 1012.81 1012.88 1013.05 1013.15 1013.05 1012.98 1013.02 1013.00 1013.06 1013.00 1013.01 1013.10 1013.10 1013.02 1012.70 1012.41 1012.30 1012.06 1012.09 1011.96 1011.90 1011.40 1011.50 1012.15 1012.43 1012.15 1012.18 1011.09 1009.97 1008.92 1007.92 1006.88 1005.84 1005.17 1004.65 1004.15
1012.35 1012.50 1012.24 1012.29 1012.37 1012.79 1012.90 1013.02 1013.21 1013.29 1013.27 1013.13 1013.20 1013.33 1013.40 1013.41 1013.43 1013.46 1013.43 1013.39 1013.26 1012.89 1012.61 1012.28 1012.16 1012.16 1011.87 1011.29 1011.49 1011.97 1012.00 1012.09 1011.84 1011.83 1011.40 1010.06 1008.64 1007.33 1006.33 1005.64 1005.16 1004.59 1003.90
Wind_Speed
10 9 8 8 8 7 6 5 5 6 6 7 8 8 8 8 9 8 9 7 10 9 8 8 11 9 8 5 7 9 8 6 7 10 7 10 9 7 9 11 9 9 6
9 8 8 8 7 7 6 6 7 6 6 7 8 8 8 8 11 11 11 10 10 11 11 11 11 8 11 11 7 8 8 10 6 11 9 7 11 9 9 6 8 7 6
7 8 7 8 8 7 7 6 6 6 7 7 7 7 7 8 9 9 9 10 9 7 6 8 12 12 10 10 10 8 8 6 7 6 10 9 6 6 10 9 9 9 5
8 7 8 8 7 7 6 6 7 6 6 6 6 6 6 8 11 11 11 10 10 9 9 10 7 10 12 11 10 12 11 10 9 7 9 10 9 8 7 8 9 10 9
8 8 9 8 7 7 7 8 8 8 8 8 8 9 8 10 11 13 12 9 10 10 10 10 10 11 16 15 9 11 12 11 10 8 7 8 9 9 9 9 10 8 8
8 9 8 8 8 8 8 8 7 7 8 8 8 9 10 9 14 16 13 8 9 10 10 12 12 13 16 18 18 17 13 10 12 11 10 10 11 9 9 10 11 10 9
9 8 8 8 8 7 7 8 8 7 7 7 8 8 10 12 16 16 16 8 9 10 10 9 10 9 11 14 16 16 13 11 12 11 13 12 12 11 8 9 11 11 10
8 8 7 7 7 6 7 7 6 6 6 6 7 8 9 11 14 17 20 10 10 10 9 9 10 12 14 15 14 12 13 13 12 11 11 10 11 11 12 6 13 9 10
9 8 7 6 6 6 7 6 4 4 4 5 5 7 9 10 14 17 17 9 10 9 9 10 11 13 18 19 12 12 12 11 14 17 15 14 16 16 14 8 10 8 10
8 7 6 6 6 6 5 4 2 2 3 4 5 5 5 8 10 11 14 9 9 9 9 10 19 15 14 16 13 12 12 13 13 13 11 15 13 13 18 13 8 10 10
7 7 7 7 6 5 4 2 3 3 4 5 5 4 1 4 5 6 11 9 10 8 8 9 10 14 12 11 11 12 12 13 13 11 9 8 10 12 12 11 11 10 10
8 8 8 6 1 4 2 1 3 4 2 3 3 4 3 2 5 6 2 3 9 10 10 8 9 11 13 5 8 8 13 11 9 9 10 10 10 9 10 11 14 14 12
9 8 6 4 2 1 2 2 5 2 3 3 4 4 4 4 3 9 7 5 4 8 9 10 13 13 13 6 4 7 9 10 10 10 11 11 10 12 14 10 12 14 14
8 6 5 4 1 1 4 2 2 3 4 4 4 4 5 5 7 7 7 5 5 7 11 9 7 10 11 8 7 5 8 8 9 10 11 10 10 10 10 12 11 11 10
6 6 4 4 2 4 1 2 3 2 5 7 6 6 5 6 6 3 4 7 7 8 11 9 8 8 9 9 9 10 9 9 9 10 9 9 11 10 9 10 11 11 7
7 6 4 4 3 0 2 2 10 8 8 10 10 8 6 4 8 7 5 7 8 9 9 6 7 8 9 9 9 10 10 11 11 11 10 10 10 10 11 11 8 10 11
4 6 6 3 1 3 4 4 6 4 15 13 13 11 12 15 10 10 7 7 10 7 9 8 7 7 7 8 9 9 10 10 11 10 11 11 10 10 10 9 10 11 9
5 3 3 2 2 3 4 4 5 4 5 5 11 12 15 15 14 11 6 5 10 6 9 7 6 8 7 7 9 10 10 10 10 10 11 11 11 11 11 11 8 7 10
6 5 3 3 3 4 6 5 6 5 7 8 9 3 9 12 11 12 7 8 9 8 8 9 7 7 6 7 7 8 12 10 10 10 11 11 11 11 11 11 11 5 7
6 1 3 6 5 6 5 5 7 7 8 8 8 8 7 7 9 9 7 10 5 8 8 8 7 7 7 7 9 7 9 14 12 11 11 12 12 12 12 12 11 12 9
4 3 4 6 7 5 6 8 8 9 9 9 9 6 1 8 10 9 8 8 7 7 8 9 9 6 7 6 9 8 11 12 13 13 12 12 12 12 12 12 12 11 11
5 4 4 5 5 6 7 8 10 9 8 8 8 5 11 8 9 8 8 8 5 6 7 8 7 6 7 8 8 10 11 13 12 11 12 13 13 12 12 12 12 12 11
6 5 6 6 7 5 8 8 7 6 7 8 9 9 9 8 8 8 8 7 7 6 6 7 7 7 8 8 9 10 12 11 12 12 14 13 13 13 12 12 12 12 12
6 7 8 7 6 7 8 5 5 2 6 7 8 8 8 8 8 8 7 8 8 8 8 8 8 10 10 10 10 9 9 11 11 12 16 14 14 13 12 13 13 14 13
7 6 7 7 6 5 3 5 5 6 6 7 7 6 7 7 7 8 7 8 8 9 9 9 7 10 11 13 11 12 13 8 9 9 11 14 16 18 15 12 12 12 15
6 8 7 5 3 1 3 4 5 6 7 6 6 6 6 6 7 8 7 8 8 9 9 8 8 11 12 10 12 13 7 5 10 8 10 12 12 12 12 14 16 12 14
Wind_Direction
108 103 99 94 92 88 83 70 45 34 7 6 2 357 356 0 357 349 339 337 331 326 323 326 317 321 312 313 297 294 271 248 254 271 233 250 258 262 292 281 253 240 239
102 101 95 90 83 78 65 60 42 28 12 11 3 8 4 7 4 2 352 349 341 344 341 330 318 317 309 296 298 282 285 290 263 265 277 249 259 256 245 264 268 260 244
107 97 88 81 73 65 55 46 42 22 13 15 11 7 15 14 1 359 344 332 335 334 347 339 333 328 313 312 305 306 292 271 269 263 272 280 258 242 248 244 248 246 258
94 93 91 79 70 65 60 51 43 38 30 28 21 17 20 15 12 357 349 335 335 342 337 340 352 340 341 329 303 302 295 295 277 267 269 269 259 251 247 262 253 242 239
118 108 94 89 80 77 69 65 65 59 59 50 43 36 20 36 21 355 345 351 351 341 343 342 354 349 17 2 354 343 327 316 300 284 282 272 264 268 259 250 232 221 230
101 91 91 88 79 83 79 72 67 66 60 51 47 47 35 35 4 0 345 11 0 4 356 358 345 25 2 346 335 327 307 306 305 300 300 287 283 282 284 280 283 266 250
87 87 87 89 98 95 93 88 80 76 77 68 60 53 53 28 9 4 343 22 13 18 21 2 356 1 356 339 330 313 303 289 269 292 297 295 300 293 297 286 255 275 268
109 107 110 118 121 113 110 102 97 89 73 61 56 45 47 48 15 0 338 16 22 26 31 32 13 355 4 342 328 338 336 323 324 327 313 307 301 313 302 281 290 287 276
119 114 113 120 128 124 110 95 85 77 64 66 49 46 29 45 22 5 345 11 16 31 33 36 20 11 3 355 341 349 338 337 340 333 319 290 274 262 259 290 269 263 259
121 112 105 113 125 116 109 102 71 323 56 350 14 31 83 25 48 6 351 15 13 6 22 21 58 11 356 357 5 358 348 341 331 329 333 322 322 305 239 237 252 261 252
124 128 131 136 131 118 110 50 351 344 338 349 357 347 6 44 63 40 7 13 357 359 7 15 25 353 344 352 357 12 357 329 348 336 343 346 342 336 334 340 316 276 274
150 142 137 142 116 110 77 16 317 325 303 316 341 307 64 45 179 112 43 358 349 338 5 7 359 327 308 298 349 340 310 318 3 2 359 354 346 339 326 323 324 318 278
151 141 136 128 117 36 314 318 263 225 323 8 8 7 19 29 40 172 194 254 290 318 1 320 275 274 270 277 174 269 304 4 0 358 355 347 357 340 320 331 325 322 322
148 145 145 170 95 241 255 209 305 340 345 349 350 355 358 1 32 3 358 338 242 308 357 312 300 263 263 287 322 329 349 360 343 351 347 347 345 341 356 340 332 332 320
151 145 153 144 169 150 257 352 324 299 341 320 319 331 336 337 29 360 311 324 339 347 316 303 349 351 346 351 347 345 337 347 340 341 333 338 338 341 347 346 337 333 324
157 164 124 141 167 173 300 279 209 243 229 239 260 263 293 254 279 291 258 249 261 272 291 343 347 354 354 352 349 347 346 344 348 323 334 333 334 333 340 333 346 340 332
159 130 139 244 240 306 308 303 306 223 230 226 232 235 238 277 288 275 273 282 261 256 274 337 334 341 345 347 346 345 344 347 325 340 330 330 329 324 318 325 335 334 336
169 74 241 237 271 290 291 293 285 308 314 304 217 215 217 232 248 263 265 272 264 203 255 289 312 320 325 337 336 335 340 328 344 329 327 325 326 324 321 322 318 325 327
189 205 217 259 278 334 299 279 270 285 297 317 325 205 203 221 229 245 201 249 281 292 285 294 295 295 329 330 334 328 321 331 316 327 323 326 324 320 318 315 314 308 318
196 243 286 299 286 275 278 278 293 299 306 311 302 315 321 303 303 304 225 234 285 283 298 298 297 288 296 293 306 310 309 310 325 325 328 321 319 320 314 314 311 312 307
230 203 202 276 261 278 303 292 299 304 305 311 311 336 151 308 301 298 307 306 319 336 312 317 319 308 297 280 296 324 300 312 318 324 325 323 320 313 310 308 306 304 301
248 250 244 253 272 275 284 313 295 299 312 308 317 346 186 289 333 318 327 20 357 351 329 316 324 328 295 310 331 296 304 309 321 328 329 318 312 310 308 307 306 304 303
242 248 259 265 270 270 265 288 312 315 320 326 332 335 333 338 328 2 1 336 331 317 340 340 322 323 346 317 305 323 317 329 346 336 314 309 309 307 311 301 299 303 301
252 264 275 283 295 315 295 314 299 267 311 333 335 337 346 347 351 357 347 348 342 339 339 334 326 326 336 327 325 324 5 358 329 314 320 310 297 299 305 303 299 301 297
258 276 289 300 312 311 321 303 347 339 336 333 342 351 348 345 346 347 350 342 338 329 335 327 330 336 331 328 325 351 359 337 311 321 297 305 299 297 288 289 296 302 302
297 291 296 294 282 286 312 343 342 336 338 339 348 349 343 344 349 339 348 339 336 328 330 329 331 332 328 316 21 345 327 323 315 306 295 292 291 295 300 304 303 298 297